Location: Chantarel
(45.1638°N, 1.7873°E)
Time: 18:29:50
(UTC+00:00)

Ariane Rocket - Pass Details

Date: 03 March 2021
Orbit: 759 x 771 km, 98.7° (Epoch: 15 April)

Event Time Altitude Azimuth Distance (km) Brightness Sun altitude
Exits shadow 20:22:16 41° 214° (SW) 1,101 3.8 -28.4°
Maximum altitude 20:23:34 52° 259° (W) 953 3.6 -28.6°
Drops below altitude 10° 20:28:34 10° 337° (NNW) 2,322 6.0 -29.5°
Sets 20:30:57 0° 342° (NNW) 3,252 6.8 -29.8°
